Hourly Data Report for September 11, 2004

SHERBROOKE A
QUEBEC

45°26'00.000" N
71°41'00.000" W
241.40 m
7028124
71610
YSC

Download Data

Hourly Data (September 2004)
Hourly Data Report for September 11, 2004
TIME
LST
Temp Definition
°C
Dew Point Definition
°C
Rel Hum Definition
%
Precip. Amount Definition
mm

Wind Dir Definition
10's deg

Wind Spd Definition
km/h
Visibility Definition
km
Stn Press Definition
kPa
Hmdx Definition


Wind Chill Definition


Weather Definition


00:00 7.3 7.0 98   13 6 0.8 99.47      
01:00 8.2 7.9 98     0 0.3 99.48      
02:00 8.6 8.2 97     0 0.3 99.50      
03:00 8.3 7.9 97   10 4 15.0 99.53      
04:00 7.2 6.7 97   9 6 15.0 99.56      
05:00 6.6 6.1 97   9 6 15.0 99.62      
06:00 7.0 6.5 97   8 6 0.3 99.68      
07:00 8.0 7.7 98   9 4 0.4 99.73     Fog
08:00 11.2 10.7 97     0 4.0 99.75     Fog
09:00 13.0 12.1 94     0 9.7 99.74     Fog
10:00 16.3 13.7 85     0 19.3 99.72     Mainly Clear
11:00 18.3 14.3 77   26 11 15.0 99.68      
12:00 19.8 11.1 57   25 11 24.1 99.63     Mainly Clear
13:00 20.6 11.5 56   28 9 24.1 99.59     Mainly Clear
14:00 22.2 12.3 53   24 6 24.1 99.55 25   Mainly Clear
15:00 21.9 11.8 53     0 24.1 99.47     Mainly Clear
16:00 22.1 12.2 53   23 9 24.1 99.44     Mainly Clear
17:00 21.5 11.6 53   25 6 15.0 99.43      
18:00 16.2 13.7 85     0 15.0 99.41      
19:00 13.6 11.8 89   16 4 15.0 99.41      
20:00 13.7 12.5 92     0 15.0 99.41      
21:00 11.7 10.9 95   12 4 15.0 99.40      
22:00 11.4 10.9 97     0 15.0 99.37      
23:00 10.8 10.2 96     0 15.0 99.35      

Notes on Data Quality.

Legend

  • E = Estimated
  • M = Missing
  • NA = Not Available*
  • [empty] = Indicates an unobserved value
Date modified: